Weather History for Plant City, FL

Change the Weather History Date:

Friday, November 9, 2012

  Actual Average Record
Temperature  
Mean Temperature 16 °C -  
Max Temperature 24 °C 26 °C 31 °C (1980)
Min Temperature 7 °C 12 °C 0 °C (1976)
Degree Days  
Heating Degree Days 6    
Growing Degree Days 10 (Base 50)    
Moisture  
Dew Point 6 °C    
Average Humidity 56    
Maximum Humidity 100    
Minimum Humidity 24    
Precipitation  
Precipitation 0.00 mm - - ()
Sea Level Pressure  
Sea Level Pressure 1024 hPa    
Wind  
Wind Speed 5 km/h (NE)    
Max Wind Speed 14 km/h    
Max Gust Speed -    
Visibility 16 kilometers    
Events      
Averages and records for this station are not official NWS values.
T = Trace of Precipitation, MM = Missing Value Source: NWS Daily Summary

Daily Weather History Graph

Daily Weather History Graph

Search for Another Location

Airport:

Trip Planner

Search our weather history database for the weather conditions in past years. The results will help you decide how hot, cold, wet, or windy it might be!

Date:

Astronomy

Nov. 09, 2012 Rise Set
Actual Time 6:46 AM EST 5:38 PM EST
Civil Twilight 6:21 AM EST 6:03 PM EST
Nautical Twilight 5:53 AM EST 6:31 PM EST
Astronomical Twilight 5:25 AM EST 6:59 PM EST
Moon 2:06 AM EST (11/9) 2:30 PM EST (11/9)
Length of Visible Light 11h 41m
Length of Day
10h 52m
Waning Crescent, 23% of the Moon is Illuminated
Nov 9
Waning Crescent
Nov 13
New
Nov 20
First Quarter
Nov 28
Full
Dec 6
Last Quarter

Hourly Weather History & Observations

Time (EST) Temp. Windchill Dew Point Humidity Pressure Visibility Wind Dir Wind Speed Gust Speed Precip Events Conditions
12:15 AM 10.0 °C - 8.0 °C 87% 1022.6 hPa 16.1 km Calm Calm - N/A   Clear
12:35 AM 10.0 °C - 9.0 °C 94% 1022.6 hPa 16.1 km Calm Calm - N/A   Clear
12:55 AM 10.0 °C - 9.0 °C 94% 1022.6 hPa 16.1 km NNE 5.6 km/h / 1.5 m/s - N/A   Clear
1:15 AM 10.0 °C - 8.0 °C 87% 1022.6 hPa 16.1 km NE 5.6 km/h / 1.5 m/s - N/A   Clear
1:35 AM 10.0 °C - 8.0 °C 87% 1022.6 hPa 16.1 km Calm Calm - N/A   Clear
1:55 AM 9.0 °C - 9.0 °C 100% 1022.6 hPa 16.1 km NE 5.6 km/h / 1.5 m/s - N/A   Clear
2:15 AM 9.0 °C - 9.0 °C 100% 1022.6 hPa 16.1 km Calm Calm - N/A   Clear
2:35 AM 9.0 °C - - N/A% 1022.6 hPa 16.1 km Calm Calm - N/A   Clear
2:55 AM 8.0 °C - - N/A% 1022.6 hPa 16.1 km Calm Calm - N/A   Clear
3:15 AM 8.0 °C 7.3 °C - N/A% 1022.6 hPa 16.1 km North 5.6 km/h / 1.5 m/s - N/A   Clear
3:35 AM 8.0 °C - - N/A% 1022.9 hPa 16.1 km Calm Calm - N/A   Clear
3:55 AM 8.0 °C - - N/A% 1022.9 hPa 16.1 km Calm Calm - N/A   Clear
4:15 AM 8.0 °C - - N/A% 1022.9 hPa 16.1 km Calm Calm - N/A   Clear
4:35 AM 7.0 °C - - N/A% 1023.2 hPa 11.3 km Calm Calm - N/A   Clear
4:55 AM 7.0 °C 6.2 °C - N/A% 1023.2 hPa 11.3 km NNE 5.6 km/h / 1.5 m/s - N/A   Clear
5:15 AM 7.0 °C 6.2 °C - N/A% 1023.2 hPa 11.3 km NNE 5.6 km/h / 1.5 m/s - N/A   Clear
5:35 AM 7.0 °C - - N/A% 1023.2 hPa 16.1 km Calm Calm - N/A   Clear
5:55 AM 8.0 °C 6.8 °C - N/A% 1023.6 hPa 16.1 km North 7.4 km/h / 2.1 m/s - N/A   Clear
6:15 AM 8.0 °C 6.4 °C - N/A% 1023.6 hPa 16.1 km North 9.3 km/h / 2.6 m/s - N/A   Clear
6:55 AM 8.0 °C - - N/A% 1024.3 hPa 11.3 km Calm Calm - N/A   Clear
7:15 AM 8.0 °C 7.3 °C - N/A% 1024.6 hPa 16.1 km NNE 5.6 km/h / 1.5 m/s - N/A   Clear
7:35 AM 9.0 °C - - N/A% 1024.9 hPa 11.3 km Calm Calm - N/A   Clear
7:55 AM 10.0 °C - - N/A% 1024.9 hPa 16.1 km North 7.4 km/h / 2.1 m/s - N/A   Clear
8:15 AM 12.0 °C - 9.0 °C 82% 1024.9 hPa 16.1 km NNE 7.4 km/h / 2.1 m/s - N/A   Clear
8:35 AM 13.0 °C - 9.0 °C 77% 1024.9 hPa 16.1 km NNE 11.1 km/h / 3.1 m/s - N/A   Clear
8:55 AM 15.0 °C - 8.0 °C 63% 1024.9 hPa 16.1 km NNE 13.0 km/h / 3.6 m/s - N/A   Clear
9:15 AM 16.0 °C - 7.0 °C 55% 1025.3 hPa 16.1 km NNE 14.8 km/h / 4.1 m/s - N/A   Clear
9:55 AM 18.0 °C - 5.0 °C 42% 1025.6 hPa 16.1 km NE 9.3 km/h / 2.6 m/s - N/A   Clear
10:15 AM 19.0 °C - 4.0 °C 37% 1025.6 hPa 16.1 km ENE 13.0 km/h / 3.6 m/s - N/A   Clear
10:35 AM 19.0 °C - 4.0 °C 37% 1025.6 hPa 16.1 km North 9.3 km/h / 2.6 m/s - N/A   Clear
2:55 PM 24.0 °C - 2.0 °C 24% 1022.9 hPa 16.1 km ENE 9.3 km/h / 2.6 m/s - N/A   Clear
3:15 PM 24.0 °C - 3.0 °C 25% 1022.9 hPa 16.1 km SE 9.3 km/h / 2.6 m/s - N/A   Clear
3:35 PM 24.0 °C - 3.0 °C 25% 1022.6 hPa 16.1 km East 7.4 km/h / 2.1 m/s - N/A   Clear
3:55 PM 24.0 °C - 3.0 °C 25% 1022.6 hPa 16.1 km East 9.3 km/h / 2.6 m/s - N/A   Clear
4:15 PM 23.0 °C - 3.0 °C 27% 1022.6 hPa 16.1 km ENE 9.3 km/h / 2.6 m/s - N/A   Clear
4:35 PM 23.0 °C - 3.0 °C 27% 1022.6 hPa 16.1 km East 7.4 km/h / 2.1 m/s - N/A   Clear
4:55 PM 22.0 °C - 3.0 °C 29% 1022.6 hPa 16.1 km East 9.3 km/h / 2.6 m/s - N/A   Clear
5:15 PM 22.0 °C - 4.0 °C 31% 1022.9 hPa 16.1 km East 5.6 km/h / 1.5 m/s - N/A   Clear
5:35 PM 20.0 °C - 5.0 °C 37% 1022.9 hPa 16.1 km NE 5.6 km/h / 1.5 m/s - N/A   Clear
5:55 PM 19.0 °C - 6.0 °C 43% 1023.2 hPa 16.1 km NE 5.6 km/h / 1.5 m/s - N/A   Clear
6:15 PM 19.0 °C - 5.0 °C 40% 1023.2 hPa 16.1 km NNE 5.6 km/h / 1.5 m/s - N/A   Clear
6:35 PM 19.0 °C - 5.0 °C 40% 1023.6 hPa 16.1 km NNE 5.6 km/h / 1.5 m/s - N/A   Clear
6:55 PM 17.0 °C - 6.0 °C 48% 1023.6 hPa 16.1 km NE 5.6 km/h / 1.5 m/s - N/A   Clear
7:15 PM 17.0 °C - 6.0 °C 48% 1023.6 hPa 16.1 km NE 5.6 km/h / 1.5 m/s - N/A   Clear
7:35 PM 16.0 °C - 5.0 °C 48% 1023.9 hPa 16.1 km NE 5.6 km/h / 1.5 m/s - N/A   Clear
7:55 PM 16.0 °C - 4.0 °C 45% 1023.9 hPa 16.1 km NE 5.6 km/h / 1.5 m/s - N/A   Clear
8:15 PM 15.0 °C - 5.0 °C 51% 1024.3 hPa 16.1 km Calm Calm - N/A   Clear
8:35 PM 15.0 °C - 5.0 °C 51% 1024.3 hPa 16.1 km NE 5.6 km/h / 1.5 m/s - N/A   Clear
8:55 PM 14.0 °C - 4.0 °C 51% 1024.6 hPa 16.1 km ENE 7.4 km/h / 2.1 m/s - N/A   Clear
9:15 PM 15.0 °C - 4.0 °C 48% 1024.6 hPa 16.1 km ENE 5.6 km/h / 1.5 m/s - N/A   Clear
9:35 PM 14.0 °C - 5.0 °C 55% 1024.6 hPa 16.1 km ENE 5.6 km/h / 1.5 m/s - N/A   Clear
9:55 PM 14.0 °C - 5.0 °C 55% 1024.9 hPa 16.1 km NE 5.6 km/h / 1.5 m/s - N/A   Clear
10:15 PM 14.0 °C - 6.0 °C 59% 1024.9 hPa 16.1 km ENE 5.6 km/h / 1.5 m/s - N/A   Clear
10:35 PM 13.0 °C - 7.0 °C 67% 1024.9 hPa 16.1 km ENE 9.3 km/h / 2.6 m/s - N/A   Clear
10:55 PM 13.0 °C - 8.0 °C 72% 1024.9 hPa 16.1 km ENE 7.4 km/h / 2.1 m/s - N/A   Clear
11:15 PM 13.0 °C - 8.0 °C 72% 1024.9 hPa 16.1 km NE 5.6 km/h / 1.5 m/s - N/A   Clear
11:35 PM 13.0 °C - 8.0 °C 72% 1024.9 hPa 16.1 km Calm Calm - N/A   Clear
11:55 PM 12.0 °C - 8.0 °C 77% 1024.9 hPa 16.1 km NE 5.6 km/h / 1.5 m/s - N/A   Clear